User: anonymous   Login
Location: Unspecified
(0.0000°N, 0.0000°E)
Time: 17:33:36
(UTC+01:00)
Language:

DELTA 2 R/B (1) - Orbit

View from above orbital plane
View from above orbital plane
View from above satellite
View from above satellite

Ground track
Ground track

The orbit data is extracted from the following two-line orbital elements,

1 27665U 03005C   15060.45474628  .00000040  00000-0  49524-4 0  9998
2 27665 039.5764 060.5708 0009048 219.7108 300.1459 14.28302868630976
Epoch (UTC): 01 March 2015 10:54:50
Eccentricity: 0.0009048
inclination: 39.5764°
perigee height: 791 km
apogee height: 804 km
right ascension of ascending node: 60.5708°
argument of perigee: 219.7108°
revolutions per day: 14.28302868
mean anomaly at epoch: 300.1459°
orbit number at epoch: 63097

The dashed part of the orbit path shows where the satellite is in the earth's shadow,  

DLR